Uosat F - Orbit

View from above orbital plane
View from above orbital plane
View from above satellite
View from above satellite

Ground track
Ground track

The orbit data is extracted from the following two-line orbital elements,

1 21575U 91050B   13145.48972720  .00000230  00000-0  87119-4 0  7283
2 21575 098.6462 111.6701 0007967 047.1643 100.6512 14.40132067147676
Epoch (UTC): 25 May 2013 11:45:12
Eccentricity: 0.0007967
inclination: 98.6462°
perigee height: 752 km
apogee height: 764 km
right ascension of ascending node: 111.6701°
argument of perigee: 47.1643°
revolutions per day: 14.40132067
mean anomaly at epoch: 100.6512°
orbit number at epoch: 14767

The dashed part of the orbit path shows where the satellite is in the earth's shadow,  

Developed and maintained by Chris Peat, Heavens-Above GmbH. Please read the updated FAQ before sending e-mail. Imprint. DLR